Location: Unspecified
(0.0000°N, 0.0000°E)
Time: 22:56:13
(UTC+00:00)

LES 2 - Pass Details

Date: 17 August 2024
Orbit: 2771 x 14804 km, 32.2° (Epoch: 05 September)

Event Time Altitude Azimuth Distance (km) Brightness Sun altitude
Exits shadow 02:41:50 37° 210° (SSW) 10,346 ? -48.7°
Maximum altitude 03:41:20 68° 130° (SE) 14,178 ? -34.6°
Drops below altitude 10° 05:47:29 10° 56° (ENE) 13,874 ? -4.0°
Sets 05:57:21 0° 56° (NE) 13,676 ? -1.6°
